BEL3TX EBBR-EDDH

Flight info

Callsign BEL3TX
Flight time 0h 52m
Altitude 37000
Route NIK L191 VICOT N873 ANDIK M105 RIBSO RIBSO7A
Aircraft A320/M-SDE3FGHIRWY/LB1

Departure

Time 2026-05-06 18:36
Airport Brussels Airport (EBBR)

Arrival

Time 2026-05-06 19:29
Airport Hamburg Helmut Schmidt Airport (EDDH)
Time Latitude Longitude Altitude Speed Heading
2026-05-06 17:44 50.90466 4.48785 66 ft 0 kts 155°
2026-05-06 18:27 50.90474 4.48779 118 ft 3 kts 155°
2026-05-06 18:27 50.90494 4.48765 100 ft 3 kts 155°
2026-05-06 18:27 50.90510 4.48753 119 ft 3 kts 155°
2026-05-06 18:28 50.90528 4.48740 116 ft 3 kts 152°
2026-05-06 18:28 50.90540 4.48725 117 ft 3 kts 88°
2026-05-06 18:28 50.90535 4.48695 117 ft 2 kts 65°
2026-05-06 18:28 50.90527 4.48664 117 ft 3 kts 65°
2026-05-06 18:29 50.90523 4.48653 117 ft 0 kts 65°
2026-05-06 18:31 50.90543 4.48723 118 ft 12 kts 65°
2026-05-06 18:31 50.90584 4.48864 117 ft 17 kts 65°
2026-05-06 18:31 50.90632 4.49032 119 ft 17 kts 66°
2026-05-06 18:31 50.90609 4.49161 121 ft 13 kts 154°
2026-05-06 18:32 50.90538 4.49213 120 ft 13 kts 155°
2026-05-06 18:32 50.90442 4.49282 121 ft 11 kts 155°
2026-05-06 18:32 50.90412 4.49359 124 ft 11 kts 82°
2026-05-06 18:32 50.90391 4.49488 122 ft 13 kts 126°
2026-05-06 18:33 50.90321 4.49537 125 ft 11 kts 187°
2026-05-06 18:33 50.90237 4.49503 127 ft 13 kts 194°
2026-05-06 18:33 50.90128 4.49458 127 ft 15 kts 194°
2026-05-06 18:33 50.90029 4.49418 131 ft 17 kts 194°
2026-05-06 18:34 50.89888 4.49361 137 ft 20 kts 195°
2026-05-06 18:34 50.89761 4.49309 146 ft 22 kts 194°
2026-05-06 18:34 50.89632 4.49254 153 ft 16 kts 201°
2026-05-06 18:34 50.89553 4.49186 158 ft 11 kts 197°
2026-05-06 18:35 50.89487 4.49156 161 ft 15 kts 195°
2026-05-06 18:35 50.89368 4.49108 165 ft 16 kts 194°
2026-05-06 18:35 50.89264 4.49065 170 ft 13 kts 194°
2026-05-06 18:35 50.89167 4.49050 176 ft 13 kts 149°
2026-05-06 18:36 50.89175 4.49212 176 ft 29 kts 69°
2026-05-06 18:36 50.89337 4.49910 177 ft 102 kts 70°
2026-05-06 18:36 50.89653 4.51268 219 ft 153 kts 71°
2026-05-06 18:36 50.90030 4.52908 826 ft 160 kts 68°
2026-05-06 18:37 50.90475 4.54502 1702 ft 157 kts 62°
2026-05-06 18:37 50.91236 4.55723 2310 ft 166 kts 23°
2026-05-06 18:37 50.92456 4.55824 2659 ft 192 kts 343°
2026-05-06 18:37 50.93623 4.54537 3010 ft 220 kts 317°
2026-05-06 18:38 50.94774 4.52736 3503 ft 245 kts 316°
2026-05-06 18:38 50.96015 4.50763 4279 ft 257 kts 316°
2026-05-06 18:38 50.97276 4.48748 5273 ft 259 kts 316°
2026-05-06 18:38 50.98559 4.46703 6286 ft 262 kts 315°
2026-05-06 18:39 50.99857 4.44645 7207 ft 266 kts 316°
2026-05-06 18:39 51.01178 4.42564 8113 ft 270 kts 316°
2026-05-06 18:39 51.02523 4.40449 9027 ft 274 kts 316°
2026-05-06 18:40 51.05311 4.36066 10423 ft 298 kts 316°
2026-05-06 18:40 51.06845 4.33656 10731 ft 322 kts 316°
2026-05-06 18:40 51.08490 4.31070 11136 ft 339 kts 315°
2026-05-06 18:40 51.10188 4.28395 11857 ft 346 kts 315°
2026-05-06 18:41 51.11908 4.25678 12620 ft 351 kts 315°
2026-05-06 18:41 51.13626 4.22955 13378 ft 355 kts 314°
2026-05-06 18:41 51.15386 4.20164 13811 ft 358 kts 314°
2026-05-06 18:41 51.17242 4.17510 13914 ft 359 kts 322°
2026-05-06 18:42 51.19259 4.15148 13939 ft 359 kts 323°
2026-05-06 18:42 51.21281 4.12780 14274 ft 364 kts 323°
2026-05-06 18:42 51.23325 4.10379 15038 ft 365 kts 323°
2026-05-06 18:42 51.25421 4.08088 15711 ft 369 kts 329°
2026-05-06 18:43 51.27786 4.06407 16389 ft 374 kts 341°
2026-05-06 18:43 51.30340 4.05514 17060 ft 378 kts 352°
2026-05-06 18:43 51.32984 4.05356 17753 ft 382 kts 358°
2026-05-06 18:43 51.35651 4.05310 18400 ft 385 kts 359°
2026-05-06 18:44 51.38343 4.05257 18954 ft 389 kts 358°
2026-05-06 18:44 51.41060 4.05199 19523 ft 393 kts 358°
2026-05-06 18:44 51.43815 4.05141 20083 ft 397 kts 358°
2026-05-06 18:44 51.46593 4.05295 20619 ft 402 kts
2026-05-06 18:45 51.49349 4.06199 21143 ft 408 kts 15°
2026-05-06 18:45 51.52014 4.07872 21643 ft 414 kts 24°
2026-05-06 18:45 51.54603 4.09802 22129 ft 418 kts 23°
2026-05-06 18:45 51.56395 4.11137 22451 ft 421 kts 23°
2026-05-06 18:46 51.59931 4.13768 23094 ft 426 kts 23°
2026-05-06 18:46 51.62635 4.15774 23562 ft 429 kts 23°
2026-05-06 18:46 51.65357 4.17796 23960 ft 432 kts 23°
2026-05-06 18:46 51.68088 4.19826 24347 ft 435 kts 24°
2026-05-06 18:47 51.70841 4.21878 24747 ft 437 kts 24°
2026-05-06 18:47 51.73615 4.23949 25136 ft 440 kts 24°
2026-05-06 18:47 51.76401 4.26033 25502 ft 442 kts 24°
2026-05-06 18:47 51.79198 4.28127 25875 ft 445 kts 24°
2026-05-06 18:48 51.82005 4.30236 26245 ft 447 kts 24°
2026-05-06 18:48 51.84830 4.32367 26599 ft 449 kts 24°
2026-05-06 18:48 51.87674 4.34520 26957 ft 452 kts 24°
2026-05-06 18:48 51.90532 4.36681 27305 ft 454 kts 24°
2026-05-06 18:49 51.93363 4.38821 27636 ft 456 kts 24°
2026-05-06 18:49 51.96244 4.40997 27961 ft 458 kts 24°
2026-05-06 18:49 51.99138 4.43182 28253 ft 461 kts 24°
2026-05-06 18:49 52.02059 4.45388 28537 ft 464 kts 24°
2026-05-06 18:50 52.04992 4.47605 28814 ft 466 kts 24°
2026-05-06 18:50 52.07930 4.49837 29094 ft 468 kts 24°
2026-05-06 18:50 52.10888 4.52091 29365 ft 469 kts 24°
2026-05-06 18:50 52.13846 4.54355 29617 ft 471 kts 24°
2026-05-06 18:51 52.16817 4.56634 29895 ft 471 kts 24°
2026-05-06 18:51 52.19781 4.58910 30228 ft 470 kts 24°
2026-05-06 18:51 52.22738 4.61182 30485 ft 471 kts 24°
2026-05-06 18:51 52.25710 4.63467 30743 ft 471 kts 24°
2026-05-06 18:52 52.28670 4.65743 31042 ft 470 kts 24°
2026-05-06 18:52 52.31628 4.68021 31334 ft 469 kts 24°
2026-05-06 18:52 52.34584 4.70297 31660 ft 468 kts 24°
2026-05-06 18:52 52.37528 4.72561 31960 ft 467 kts 23°
2026-05-06 18:53 52.40465 4.74825 32281 ft 466 kts 24°
2026-05-06 18:53 52.43396 4.77092 32591 ft 465 kts 23°
2026-05-06 18:53 52.46311 4.79357 32897 ft 464 kts 24°
2026-05-06 18:53 52.49233 4.81630 33193 ft 464 kts 23°
2026-05-06 18:54 52.52054 4.84189 33529 ft 464 kts 32°
2026-05-06 18:54 52.54615 4.87419 33821 ft 465 kts 40°
2026-05-06 18:54 52.56825 4.91193 34108 ft 465 kts 50°
2026-05-06 18:54 52.58838 4.95365 34338 ft 466 kts 51°
2026-05-06 18:55 52.60870 4.99600 34589 ft 466 kts 51°
2026-05-06 18:55 52.62853 5.03737 34788 ft 466 kts 51°
2026-05-06 18:55 52.64859 5.07936 35016 ft 467 kts 51°
2026-05-06 18:55 52.66820 5.12064 35218 ft 468 kts 51°
2026-05-06 18:56 52.68830 5.16294 35394 ft 469 kts 51°
2026-05-06 18:56 52.70847 5.20532 35577 ft 470 kts 51°
2026-05-06 18:56 52.72806 5.24849 35775 ft 471 kts 56°
2026-05-06 18:56 52.74396 5.29564 35973 ft 471 kts 65°
2026-05-06 18:57 52.75584 5.34633 36159 ft 472 kts 71°
2026-05-06 18:57 52.76677 5.39743 36347 ft 472 kts 70°
2026-05-06 18:57 52.77775 5.44848 36522 ft 473 kts 70°
2026-05-06 18:57 52.78883 5.49969 36709 ft 473 kts 70°
2026-05-06 18:58 52.79992 5.55084 36881 ft 473 kts 71°
2026-05-06 18:58 52.82035 5.65444 36943 ft 474 kts 74°
2026-05-06 18:59 52.83810 5.75939 36950 ft 474 kts 75°
2026-05-06 18:59 52.85246 5.84675 36950 ft 474 kts 75°
2026-05-06 19:00 52.87027 5.95155 36940 ft 474 kts 74°
2026-05-06 19:00 52.89150 6.07359 36938 ft 474 kts 75°
2026-05-06 19:01 52.90666 6.16150 36940 ft 474 kts 75°
2026-05-06 19:01 52.92459 6.26665 36944 ft 474 kts 75°
2026-05-06 19:02 52.94237 6.37198 36947 ft 474 kts 75°
2026-05-06 19:02 52.96008 6.47745 36949 ft 474 kts 75°
2026-05-06 19:03 52.97778 6.58299 36956 ft 474 kts 75°
2026-05-06 19:03 52.99518 6.68782 36950 ft 474 kts 75°
2026-05-06 19:03 53.00381 6.74017 36945 ft 463 kts 75°
2026-05-06 19:04 53.01219 6.79120 36942 ft 454 kts 76°
2026-05-06 19:04 53.02867 6.89175 36939 ft 450 kts 76°
2026-05-06 19:05 53.04502 6.99198 36932 ft 449 kts 76°
2026-05-06 19:05 53.05316 7.04207 36632 ft 449 kts 76°
2026-05-06 19:05 53.06124 7.09207 35997 ft 448 kts 76°
2026-05-06 19:05 53.06931 7.14202 35375 ft 447 kts 76°
2026-05-06 19:06 53.07737 7.19198 34779 ft 446 kts 76°
2026-05-06 19:06 53.08538 7.24186 34199 ft 445 kts 76°
2026-05-06 19:06 53.09333 7.29154 33559 ft 444 kts 76°
2026-05-06 19:06 53.10117 7.34057 32836 ft 444 kts 76°
2026-05-06 19:07 53.10910 7.39020 32082 ft 444 kts 76°
2026-05-06 19:07 53.11702 7.43991 31318 ft 445 kts 77°
2026-05-06 19:07 53.12491 7.48979 30551 ft 446 kts 77°
2026-05-06 19:07 53.13279 7.53983 29735 ft 447 kts 77°
2026-05-06 19:08 53.14063 7.58986 28787 ft 448 kts 77°
2026-05-06 19:08 53.14848 7.64015 27807 ft 451 kts 77°
2026-05-06 19:08 53.15637 7.69094 26811 ft 453 kts 76°
2026-05-06 19:08 53.16429 7.74185 25850 ft 455 kts 76°
2026-05-06 19:09 53.17226 7.79307 24863 ft 457 kts 76°
2026-05-06 19:09 53.18022 7.84440 23849 ft 459 kts 76°
2026-05-06 19:09 53.18818 7.89600 22729 ft 461 kts 76°
2026-05-06 19:09 53.19613 7.94795 21564 ft 463 kts 76°
2026-05-06 19:10 53.20405 7.99991 20422 ft 463 kts 76°
2026-05-06 19:10 53.21200 8.05202 19282 ft 463 kts 76°
2026-05-06 19:10 53.21995 8.10423 18222 ft 463 kts 76°
2026-05-06 19:10 53.22787 8.15612 17320 ft 455 kts 75°
2026-05-06 19:11 53.23542 8.20589 16928 ft 437 kts 75°
2026-05-06 19:11 53.24253 8.25318 16604 ft 404 kts 75°
2026-05-06 19:11 53.24920 8.29746 15994 ft 384 kts 75°
2026-05-06 19:11 53.25562 8.34018 15075 ft 375 kts 75°
2026-05-06 19:12 53.26194 8.38241 13993 ft 373 kts 74°
2026-05-06 19:12 53.26811 8.42375 13131 ft 362 kts 74°
2026-05-06 19:12 53.27410 8.46420 12151 ft 355 kts 74°
2026-05-06 19:12 53.28000 8.50404 11311 ft 351 kts 75°
2026-05-06 19:13 53.28586 8.54355 11026 ft 350 kts 75°
2026-05-06 19:13 53.29169 8.58306 10890 ft 348 kts 75°
2026-05-06 19:13 53.29715 8.62052 10900 ft 315 kts 75°
2026-05-06 19:13 53.30209 8.65442 10875 ft 296 kts 75°
2026-05-06 19:14 53.30696 8.68777 10344 ft 289 kts 75°
2026-05-06 19:14 53.31171 8.72018 9713 ft 285 kts 75°
2026-05-06 19:14 53.31640 8.75214 9037 ft 281 kts 75°
2026-05-06 19:14 53.32101 8.78357 8414 ft 275 kts 75°
2026-05-06 19:15 53.32546 8.81388 7785 ft 270 kts 75°
2026-05-06 19:15 53.32990 8.84424 7154 ft 266 kts 75°
2026-05-06 19:15 53.33426 8.87418 6926 ft 265 kts 76°
2026-05-06 19:15 53.33859 8.90410 6902 ft 265 kts 76°
2026-05-06 19:16 53.34294 8.93416 6906 ft 266 kts 76°
2026-05-06 19:16 53.34728 8.96430 6907 ft 266 kts 76°
2026-05-06 19:16 53.35159 8.99437 6906 ft 266 kts 76°
2026-05-06 19:16 53.35591 9.02444 6906 ft 266 kts 76°
2026-05-06 19:17 53.36023 9.05457 6901 ft 266 kts 76°
2026-05-06 19:17 53.36451 9.08464 6903 ft 266 kts 76°
2026-05-06 19:17 53.36876 9.11465 6608 ft 263 kts 76°
2026-05-06 19:17 53.37298 9.14437 6183 ft 261 kts 76°
2026-05-06 19:18 53.37716 9.17379 5770 ft 259 kts 76°
2026-05-06 19:18 53.38131 9.20295 5366 ft 256 kts 76°
2026-05-06 19:18 53.38540 9.23182 4969 ft 254 kts 76°
2026-05-06 19:18 53.38943 9.26040 4562 ft 251 kts 75°
2026-05-06 19:19 53.39340 9.28860 4283 ft 242 kts 75°
2026-05-06 19:19 53.39715 9.31534 4158 ft 229 kts 76°
2026-05-06 19:19 53.40067 9.34043 4052 ft 220 kts 76°
2026-05-06 19:19 53.40421 9.36561 3988 ft 218 kts 76°
2026-05-06 19:20 53.40766 9.39005 3985 ft 218 kts 76°
2026-05-06 19:20 53.41113 9.41479 3991 ft 218 kts 76°
2026-05-06 19:20 53.41457 9.43945 3989 ft 213 kts 76°
2026-05-06 19:20 53.41783 9.46292 3986 ft 201 kts 76°
2026-05-06 19:21 53.42102 9.48577 3992 ft 209 kts 76°
2026-05-06 19:21 53.42439 9.51011 3992 ft 216 kts 76°
2026-05-06 19:21 53.42780 9.53475 3983 ft 217 kts 76°
2026-05-06 19:21 53.43123 9.55948 3982 ft 218 kts 76°
2026-05-06 19:22 53.43466 9.58421 3983 ft 218 kts 75°
2026-05-06 19:22 53.44081 9.60712 4002 ft 217 kts 55°
2026-05-06 19:22 53.45026 9.62697 4002 ft 217 kts 50°
2026-05-06 19:22 53.45972 9.64562 3997 ft 201 kts 50°
2026-05-06 19:23 53.46839 9.66282 4025 ft 184 kts 51°
2026-05-06 19:23 53.47624 9.67847 4005 ft 168 kts 51°
2026-05-06 19:23 53.48365 9.69328 4027 ft 165 kts 51°
2026-05-06 19:23 53.49104 9.70805 3971 ft 165 kts 51°
2026-05-06 19:24 53.49839 9.72277 3814 ft 164 kts 51°
2026-05-06 19:24 53.50572 9.73743 3612 ft 164 kts 51°
2026-05-06 19:24 53.51304 9.75209 3396 ft 163 kts 51°
2026-05-06 19:24 53.52031 9.76664 3184 ft 163 kts 51°
2026-05-06 19:25 53.52747 9.78099 2962 ft 160 kts 51°
2026-05-06 19:25 53.53443 9.79481 2716 ft 154 kts 51°
2026-05-06 19:25 53.54147 9.80898 2520 ft 159 kts 52°
2026-05-06 19:25 53.54855 9.82327 2308 ft 160 kts 51°
2026-05-06 19:26 53.55570 9.83763 2096 ft 160 kts 51°
2026-05-06 19:26 53.56285 9.85192 1883 ft 158 kts 51°
2026-05-06 19:26 53.56976 9.86600 1660 ft 151 kts 51°
2026-05-06 19:26 53.57619 9.87860 1401 ft 135 kts 50°
2026-05-06 19:27 53.58219 9.89056 1190 ft 134 kts 51°
2026-05-06 19:27 53.58807 9.90267 1031 ft 134 kts 51°
2026-05-06 19:27 53.59397 9.91464 882 ft 133 kts 50°
2026-05-06 19:27 53.59995 9.92665 678 ft 133 kts 48°
2026-05-06 19:28 53.60571 9.93828 530 ft 128 kts 49°
2026-05-06 19:28 53.61139 9.94979 347 ft 129 kts 49°
2026-05-06 19:28 53.61720 9.96154 170 ft 131 kts 49°
2026-05-06 19:28 53.62287 9.97298 43 ft 118 kts 49°
2026-05-06 19:29 53.62718 9.98170 42 ft 73 kts 51°
2026-05-06 19:29 53.62991 9.98723 45 ft 53 kts 50°
2026-05-06 19:29 53.63193 9.99135 47 ft 32 kts 51°
2026-05-06 19:29 53.63291 9.99413 47 ft 25 kts 79°
2026-05-06 19:30 53.63284 9.99594 46 ft 8 kts 99°
2026-05-06 19:30 53.63280 9.99632 48 ft 0 kts 100°
2026-05-06 19:31 53.63274 9.99729 48 ft 14 kts 82°
2026-05-06 19:31 53.63333 9.99872 48 ft 16 kts 50°
2026-05-06 19:31 53.63404 10.00156 48 ft 10 kts 155°
2026-05-06 19:32 53.63340 10.00164 48 ft 9 kts 176°
2026-05-06 19:32 53.63279 10.00172 48 ft 8 kts 176°
2026-05-06 19:32 53.63224 10.00178 48 ft 8 kts 176°
2026-05-06 19:32 53.63153 10.00187 48 ft 11 kts 176°
2026-05-06 19:33 53.63087 10.00216 48 ft 9 kts 135°
2026-05-06 19:33 53.63076 10.00315 48 ft 9 kts 93°
2026-05-06 19:33 53.63074 10.00374 48 ft 1 kts 94°
2026-05-06 19:33 53.63073 10.00380 48 ft 0 kts 94°